Regional Weather Roundup
Issued by NWS

Home | Current Version | Previous Version | Graphics & Text | Print | Product List | Glossary On
Versions: 1 2 3 4 5 6 7 8 9 10 11 12 13 14 15 16 17 18 19 20 21 22 23 24 25 26 27 28 29 30 31 32 33 34 35 36 37 38 39 40 41 42 43 44 45 46 47 48 49 50
000
ASUS43 KMPX 260501
RWRMN
WEATHER ROUNDUP FOR MINNESOTA
NATIONAL WEATHER SERVICE TWIN CITIES/CHANHASSEN MN
1200 AM CDT THU APR 26 2018


NOTE: "FAIR" INDICATES FEW OR NO CLOUDS BELOW 12,000 FEET WITH NO
SIGNIFICANT WEATHER AND/OR OBSTRUCTIONS TO VISIBILITY. N/A MEANS
CURRENT SKY AND/OR WEATHER CONDITIONS ARE NOT AVAILABLE.

MNZ060>063-068>070-260600-
   Twin Cities Metro

CITY           SKY/WX    TMP DP  RH WIND       PRES   REMARKS
TWIN CITIES    CLOUDY    50  33  52 SW5       29.95F
ST PAUL        FAIR      46  34  62 CALM      29.95F
CRYSTAL        FAIR      44  31  60 CALM      29.94F
BLAINE         FAIR      46  32  57 S3        29.94F
LAKEVILLE      FAIR      41  34  75 CALM      29.96F
EDEN PRAIRIE   FAIR      46  32  58 SW3       29.94F
SOUTH ST PAUL  FAIR      45  31  59 CALM      29.94F
LAKE ELMO      FAIR      41  32  70 CALM      29.95F
$$
MNZ001>005-007-008-013>017-022>024-027-028-260600-
   Northwest Minnesota

CITY           SKY/WX    TMP DP  RH WIND       PRES   REMARKS
BEMIDJI        FAIR      46  29  51 S10       29.80F
HALLOCK        FAIR      50  28  43 N17G26    29.79R
ROSEAU         FAIR      52  39  62 W6        29.76R
WARROAD        FAIR      52  37  58 W12G21    29.76R
THIEF RVR FALL FAIR      48  35  60 S15       29.75F
CROOKSTON      FAIR      50  37  62 S16       29.75F
FOSSTON        FAIR      46  32  57 S15       29.79F
DETROIT LAKES  FAIR      50  32  50 S9        29.82F
MOORHEAD       FAIR      50  36  57 S16G22    29.80F
PARK RAPIDS    FAIR      45  31  58 S10       29.83F
MAHNOMEN       FAIR      46  34  61 S14       29.79F
$$
MNZ006-009>011-018-025>026-260600-
   North Central Minnesota

CITY           SKY/WX    TMP DP  RH WIND       PRES   REMARKS
BAUDETTE       FAIR      47  33  58 S8        29.75F
FLAG ISLAND    FAIR      46  34  61 SW12      29.72S
INTL FALLS     FAIR      47  28  47 S8        29.78F
WASKISH        FAIR      48  30  49 S8        29.77F
BIG FORK       FAIR      43  28  56 S6        29.82F
LONGVILLE      FAIR      46  27  46 S6        29.85F
GRAND RAPIDS   FAIR      43  26  51 S7        29.88F
CRANE LAKE     FAIR      34  25  69 S3        29.84F
ORR            FAIR      43  21  42 S5        29.81F
COOK           FAIR      46  25  42 S5        29.85F
WALKER         FAIR      45  29  53 S8        29.83F
$$
MNZ012-019>021-037-260600-
   Northeast Minnesota

CITY           SKY/WX    TMP DP  RH WIND       PRES   REMARKS
DULUTH         FAIR      45  20  36 SW8       29.88F
ELY            FAIR      46  21  36 SW5       29.85F
HIBBING        FAIR      41  23  48 S3        29.86F
EVELETH        FAIR      44  24  45 SW7       29.88F
DULUTH HARBOR  FAIR      36  30  80 CALM      29.91F
TWO HARBORS    FAIR      37  25  60 CALM      29.87F
SILVER BAY     FAIR      32  23  69 CALM      29.87F
GRAND MARAIS     N/A     32  25  75 CALM      29.89F
G MARAIS ARPRT FAIR      30  19  64 CALM      29.87F
$$
MNZ029>031-032-039>041-046>048-054>057-064-260600-
   West Central Minnesota

CITY           SKY/WX    TMP DP  RH WIND       PRES   REMARKS
FERGUS FALLS   FAIR      46  34  61 S12       29.83F
WHEATON        CLOUDY    46  34  61 SE13      29.87F
MORRIS         CLOUDY    43  37  81 SE7       29.89F
ALEXANDRIA     FAIR      47  33  58 S10       29.90F
ELBOW LAKE     FAIR      42  36  78 S12       29.87F
WADENA         FAIR      45  32  61 SW8       29.85F
GLENWOOD       FAIR      39  34  81 S8        29.91F
APPLETON       CLOUDY    48  34  57 S6        29.90F
BENSON         CLOUDY    45  36  70 S6        29.93S
ORTONVILLE     CLOUDY    45  34  65 S8        29.89F
WILLMAR        FAIR      41  34  75 CALM      29.95F
$$
MNZ033>034-036-042>043-049>051-058-059-260600-
   Central Minnesota

CITY           SKY/WX    TMP DP  RH WIND       PRES   REMARKS
ST CLOUD       FAIR      42  33  70 S5        29.93F
SAUK CENTRE    FAIR      39  32  76 S6        29.91F
PAYNESVILLE    FAIR      45  35  67 S6        29.93F
AITKIN         FAIR      43  27  52 S5        29.88F
PINE RIVER     FAIR      41  28  60 CALM      29.90F
BRAINERD       FAIR      46  29  51 S9        29.89F
STAPLES        FAIR      41  30  65 S9        29.87F
LONG PRAIRIE   FAIR      41  32  70 S8        29.90F
LITTLE FALLS   FAIR      41  25  52 S5        29.91F
LITCHFIELD     FAIR      45  36  70 CALM      29.93F
BUFFALO        FAIR      43  33  69 CALM      29.95F
MAPLE LAKE     FAIR      42  35  76 CALM      29.94F
HUTCHINSON     FAIR      41  37  84 CALM      29.94F
$$
MNZ037-044-045-052-053-260600-
   East Central Minnesota

CITY           SKY/WX    TMP DP  RH WIND       PRES   REMARKS
PRINCETON      FAIR      43  30  61 CALM      29.93F
MORA           FAIR      45  28  53 CALM      29.94F
CAMBRIDGE      FAIR      43  28  56 S3        29.94F
RUSH CITY      MOCLDY    46  28  49 SW3       29.93F
MOOSE LAKE     FAIR      36  23  60 CALM      29.89F
HINCKLEY       FAIR      41  28  60 SW3       29.93S
CLOQUET        FAIR      45  18  33 SW6       29.89F
MCGREGOR       FAIR      43  27  52 S3        29.90F
$$
MNZ071>073-080-081-089-090-097-098-260600-
   Southwest Minnesota

CITY           SKY/WX    TMP DP  RH WIND       PRES   REMARKS
MONTEVIDEO     CLOUDY    46  37  71 SW6       29.91F
GRANITE FALLS  CLOUDY    42  38  85 S8        29.93F
CANBY          CLOUDY    47  34  59 S6        29.91F
MARSHALL       PTCLDY    43  34  70 S7        29.93F
REDWOOD FALLS  CLOUDY    45  34  65 S8        29.93F
OLIVIA         CLOUDY    45  32  61 S7        29.92F
PIPESTONE      CLOUDY   N/A N/A N/A S7        29.94F
WINDOM         CLOUDY    45  27  49 S3        29.95F
WORTHINGTON    CLOUDY    44  33  65 S7        29.96F
JACKSON        CLOUDY    45  32  61 S7        29.97F
TRACY          CLOUDY    47  35  64 SW12      29.93F
SLAYTON        CLOUDY    42  35  75 SW9       29.96F
$$
MNZ065>067-074>077-082>085-091>093-260600-
   South Central Minnesota

CITY           SKY/WX    TMP DP  RH WIND       PRES   REMARKS
MANKATO        FAIR      47  33  58 S5        29.96F
NEW ULM        CLOUDY    43  34  70 S6        29.95F
ST JAMES       CLOUDY    45  36  70 S7        29.96F
FAIRMONT       CLOUDY    42  38  85 S7        29.96F
GLENCOE        FAIR      47  37  68 S3        29.93F
OWATONNA       FAIR      45  36  70 S6        29.96F
WASECA         FAIR      41  36  81 CALM      29.97F
ALBERT LEA     FAIR      39  37  93 CALM      29.97F
$$
MNZ078>079-086>088-094>096-260600-
   Southeast Minnesota

CITY           SKY/WX    TMP DP  RH WIND       PRES   REMARKS
ROCHESTER      FAIR      45  33  63 W7        29.97F
RED WING       FAIR      37  28  70 CALM      29.96S
STANTON        FAIR      41  34  77 S5        29.95F
DODGE CENTER   FAIR      39  32  75 SW3       29.97F
WINONA         FAIR      41  32  70 N3        29.95F
AUSTIN         FAIR      45  34  65 CALM      29.97F
PRESTON        FAIR      43  29  57 SW3       29.98F
$$
ABBREVIATIONS USED IN REMARKS
   TC - TEMPERATURES IN CELSIUS
  WCI - WIND CHILL INDEX
   HX - HEAT INDEX
  VSB - VISIBILITY
$$




USA.gov is the U.S. government's official web portal to all federal, state and local government web resources and services.